Moses Lake, WA
on Sunday, November 25, 2012

Sunday
Previous Day Next Day
Daily Summary
 ActualAverageRecord
Temperature
Mean Temperature °F 34°F  
Max Temperature 38°F 41°F 59°F (2004)
Min Temperature 24°F 27°F -12°F (1985)
Degree Days
Heating Degree Days 34 31  
Month to date heating degree days 586 662  
Since 1 July heating degree days 1111 1299  
Cooling Degree Days 0 0  
Month to date cooling degree days 0 0  
Year to date cooling degree days 719 615  
Moisture
Dew Point 26°F   
Average Humidity 88    
Maximum Humidity 100    
Minimum Humidity 75    
Precipitation
Precipitation 0.00 in 0.04 in 0.34 in (2005)
Month to date precipitation 1.05 0.97  
Year to date precipitation 7.65 7.44  
Wind
Wind Speed 2 mph   
Max Wind Speed 8 mph   
Max Gust Speed 13 mph   
Visibility 5 miles   
Events Fog   

Key: T is trace of precipitation, MM is missing value
Source: NWS Daily Summary
Time(PST)TemperatureDew PointHumidity Pressure Visibility Wind DirectionWind SpeedGust SpeedPrecipitationEvents Conditions
12:12 AM 26.6°F 24.8°F 93% 30.15 in 1.8 miles Calm Calm - N/A   Overcast
12:17 AM 28.4°F 24.8°F 86% 30.15 in 3.0 miles Calm Calm - N/A   Overcast
12:20 AM 28.4°F 26.6°F 93% 30.15 in 1.8 miles Calm Calm - N/A   Overcast
12:25 AM 28.4°F 26.6°F 93% 30.15 in 0.8 miles Calm Calm - N/A   Mist
12:37 AM 28.4°F 26.6°F 93% 30.15 in 0.2 miles Calm Calm - N/A Fog Light Freezing Fog
12:52 AM 28.9°F 27.0°F 92% 30.19 in 0.2 miles Calm Calm - N/A Fog Light Freezing Fog
1:22 AM 28.4°F 26.6°F 93% 30.16 in 0.2 miles Calm Calm - N/A Fog Light Freezing Fog
1:47 AM 28.4°F 28.4°F 100% 30.16 in 0.2 miles Calm Calm - N/A Fog Light Freezing Fog
1:52 AM 30.0°F 28.0°F 92% 30.20 in 0.2 miles Calm Calm - N/A Fog Light Freezing Fog
2:52 AM 27.0°F 26.1°F 96% 30.21 in 0.2 miles Calm Calm - N/A Fog Light Freezing Fog
3:52 AM 27.0°F 23.0°F 85% 30.22 in 0.2 miles Calm Calm - N/A Fog Light Freezing Fog
4:44 AM 26.6°F 24.8°F 93% 30.20 in 1.0 miles Calm Calm - N/A   Mist
4:49 AM 26.6°F 23.0°F 86% 30.20 in 3.0 miles Calm Calm - N/A   Overcast
4:52 AM 26.1°F 23.0°F 88% 30.24 in 2.5 miles Calm Calm - N/A   Overcast
5:00 AM 26.6°F 21.2°F 80% 30.20 in 1.0 miles Calm Calm - N/A   Overcast
5:07 AM 26.6°F 21.2°F 80% 30.20 in 0.5 miles Calm Calm - N/A Fog Light Freezing Fog
5:21 AM 24.8°F 21.2°F 86% 30.21 in 0.2 miles Calm Calm - N/A Fog Light Freezing Fog
5:52 AM 25.0°F 21.9°F 88% 30.26 in 0.2 miles Calm Calm - N/A Fog Light Freezing Fog
6:01 AM 24.8°F 21.2°F 86% 30.22 in 0.5 miles NNE 4.6 mph - N/A Fog Light Freezing Fog
6:52 AM 24.1°F 21.0°F 88% 30.27 in 0.5 miles Calm Calm - N/A Fog Light Freezing Fog
7:08 AM 24.8°F 21.2°F 86% 30.23 in 2.0 miles Calm Calm - N/A   Mostly Cloudy
7:16 AM 24.8°F 21.2°F 86% 30.23 in 6.0 miles Calm Calm - N/A   Scattered Clouds
7:52 AM 26.1°F 21.9°F 84% 30.29 in 7.0 miles Calm Calm - N/A   Partly Cloudy
8:19 AM 26.6°F 23.0°F 86% 30.26 in 2.5 miles Calm Calm - N/A   Mostly Cloudy
8:26 AM 26.6°F 24.8°F 93% 30.26 in 1.0 miles Calm Calm - N/A   Mist
8:32 AM 28.4°F 24.8°F 86% 30.27 in 2.5 miles Calm Calm - N/A   Scattered Clouds
8:39 AM 28.4°F 24.8°F 86% 30.27 in 8.0 miles Calm Calm - N/A   Scattered Clouds
8:52 AM 28.9°F 25.0°F 85% 30.32 in 9.0 miles Calm Calm - N/A   Scattered Clouds
9:06 AM 28.4°F 24.8°F 86% 30.28 in 1.5 miles Calm Calm - N/A   Scattered Clouds
9:12 AM 28.4°F 24.8°F 86% 30.28 in 0.2 miles Calm Calm - N/A Fog Light Freezing Fog
9:33 AM 28.4°F 26.6°F 93% 30.28 in 0.5 miles Calm Calm - N/A Fog Light Freezing Fog
9:41 AM 30.2°F 26.6°F 86% 30.28 in 2.5 miles Calm Calm - N/A   Mostly Cloudy
9:48 AM 32.0°F 26.6°F 80% 30.28 in 7.0 miles Calm Calm - N/A   Mostly Cloudy
9:52 AM 32.0°F 27.0°F 82% 30.33 in 8.0 miles Calm Calm - N/A   Scattered Clouds
10:52 AM 34.0°F 30.0°F 85% 30.33 in 10.0 miles East 3.5 mph - N/A   Partly Cloudy
11:27 AM 32.0°F 28.4°F 87% 30.30 in 10.0 miles East 4.6 mph - N/A   Mostly Cloudy
11:37 AM 32.0°F 30.2°F 93% 30.30 in 10.0 miles ENE 3.5 mph - N/A   Mostly Cloudy
11:52 AM 32.0°F 30.0°F 92% 30.34 in 10.0 miles ESE 4.6 mph - N/A   Mostly Cloudy
12:10 PM 32.0°F 30.2°F 93% 30.29 in 10.0 miles ESE 4.6 mph - N/A   Overcast
12:52 PM 34.0°F 30.0°F 85% 30.33 in 10.0 miles SE 3.5 mph - N/A   Mostly Cloudy
1:19 PM 35.6°F 30.2°F 81% 30.29 in 10.0 miles Calm Calm - N/A   Scattered Clouds
1:52 PM 35.1°F 30.9°F 85% 30.33 in 10.0 miles SSE 3.5 mph - N/A   Clear
2:52 PM 37.9°F 30.0°F 73% 30.33 in 10.0 miles SSE 3.5 mph - N/A   Clear
3:52 PM 37.0°F 30.0°F 76% 30.35 in 10.0 miles Calm Calm - N/A   Clear
4:52 PM 35.1°F 28.9°F 78% 30.35 in 10.0 miles Calm Calm - N/A   Clear
5:52 PM 32.0°F 28.0°F 85% 30.36 in 10.0 miles ESE 4.6 mph - N/A   Clear
6:52 PM 30.0°F 26.1°F 85% 30.38 in 10.0 miles NE 3.5 mph - N/A   Clear
7:52 PM 28.9°F 26.1°F 89% 30.37 in 10.0 miles North 5.8 mph - N/A   Clear
8:52 PM 28.0°F 25.0°F 88% 30.38 in 10.0 miles North 5.8 mph - N/A   Clear
9:52 PM 28.0°F 25.0°F 88% 30.39 in 10.0 miles North 4.6 mph - N/A   Clear
10:52 PM 27.0°F 24.1°F 89% 30.38 in 10.0 miles North 4.6 mph - N/A   Clear
11:52 PM 26.1°F 24.1°F 92% 30.39 in 10.0 miles North 6.9 mph - N/A   Clear
Moon Phase
Nov. 25 Nov. 28 Dec. 06 Dec. 13 Dec. 20
Sunrise:07:16 AM (PST) Moon Rise:02:38 PM (PST)11/25
Sunset:04:12 PM (PST) Moon Set:04:27 AM (PST)11/25

Copyright © 2014 The Weather Underground, Inc.